This is the latest recevied weather packets stored in our database for station/object K5DLF-13. If no packets are shown the sender has not sent any weather packets the latest 1 day(s).
| Time | Temp. | Humidity | Pressure | Rain* | Wind** | Luminosity | Snow |
|---|---|---|---|---|---|---|---|
| 1777996797 | 26.11° C | 87% | 1007.2 hPa | 0 mm | 0.89 m/s, 200° | 107 W/m² | - |
| 1777996497 | 26.11° C | 86% | 1007.3 hPa | 0 mm | 0.89 m/s, 200° | 90 W/m² | - |
| 1777996197 | 26.11° C | 86% | 1007.2 hPa | 0 mm | 0.45 m/s, 200° | 65 W/m² | - |
| 1777995897 | 26.67° C | 85% | 1007.2 hPa | 0 mm | 0.45 m/s, 199° | 107 W/m² | - |
| 1777995597 | 26.67° C | 85% | 1007.2 hPa | 0 mm | 0.45 m/s, 199° | 74 W/m² | - |
| 1777995297 | 26.67° C | 84% | 1007.1 hPa | 0 mm | 0.45 m/s, 199° | 100 W/m² | - |
| 1777994997 | 26.67° C | 84% | 1007.1 hPa | 0 mm | 0.89 m/s, 198° | 125 W/m² | - |
| 1777994697 | 27.22° C | 83% | 1007 hPa | 0 mm | 0.89 m/s, 198° | 134 W/m² | - |
| 1777994397 | 27.22° C | 84% | 1007 hPa | 0 mm | 0.89 m/s, 198° | 207 W/m² | - |
| 1777994097 | 26.67° C | 85% | 1006.9 hPa | 0 mm | 0.89 m/s, 194° | 216 W/m² | - |
| 1777993797 | 26.67° C | 86% | 1007.1 hPa | 0 mm | 0.89 m/s, 192° | 181 W/m² | - |
| 1777993497 | 26.67° C | 88% | 1006.9 hPa | 0 mm | 0.89 m/s, 201° | 348 W/m² | - |
| 1777993197 | 26.11° C | 88% | 1006.9 hPa | 0 mm | 0.89 m/s, 221° | 647 W/m² | - |
| 1777992898 | 25.56° C | 90% | 1007 hPa | 0 mm | 0.89 m/s, 208° | 267 W/m² | - |
| 1777992598 | 25.56° C | 91% | 1007 hPa | 0 mm | 0.89 m/s, 208° | 487 W/m² | - |
| 1777992298 | 25° C | 93% | 1007.1 hPa | 0 mm | 0.89 m/s, 171° | 501 W/m² | - |
| 1777991998 | 25° C | 92% | 1007.2 hPa | 0 mm | 0.89 m/s, 171° | 239 W/m² | - |
| 1777991697 | 24.44° C | 91% | 1007.2 hPa | 0 mm | 0.45 m/s, 171° | 190 W/m² | - |
| 1777991398 | 24.44° C | 91% | 1007.3 hPa | 0 mm | 0.45 m/s, 171° | 95 W/m² | - |
| 1777991098 | 24.44° C | 91% | 1007.2 hPa | 0 mm | 0.45 m/s, 171° | 58 W/m² | - |
| 1777990798 | 24.44° C | 91% | 1007.2 hPa | 0 mm | 0.45 m/s, 171° | 54 W/m² | - |
| 1777990498 | 24.44° C | 91% | 1007.2 hPa | 0 mm | 0.45 m/s, 171° | 56 W/m² | - |
| 1777990198 | 24.44° C | 91% | 1007.1 hPa | 0 mm | 0.45 m/s, 171° | 69 W/m² | - |
| 1777989898 | 24.44° C | 91% | 1007.1 hPa | 0 mm | 0.45 m/s, 169° | 81 W/m² | - |
| 1777989598 | 24.44° C | 92% | 1007.1 hPa | 0 mm | 0 m/s | 77 W/m² | - |
* Rain latest hour (hover to see other rain measurements)
** Current wind speed in m/s (hover to see current wind gust speed)